• In Hungary
  • List of Countries
  • For 7 days
  • Water Temperature
  • Satellite Maps
  • Weather Map
  • News
  • Weather Widgets
  • user-avatar
    Login

    Hourly Weather Zabid

    Today, 22 September, Saturday

    Time Temperature Precipitation Wind Pressure Humidity
    00:00 +35°C° 0 mm 1 mps 748 mmHg 50%
    01:00 +34°C° 0 mm 1 mps 748 mmHg 52%
    02:00 +34°C° 0 mm 1 mps 748 mmHg 54%
    03:00 +33°C° 0 mm 1 mps 748 mmHg 55%
    04:00 +33°C° 0 mm 1 mps 748 mmHg 56%
    05:00 +34°C° 0 mm 2 mps 748 mmHg 58%
    06:00 +32°C° 0 mm 2 mps 749 mmHg 59%
    07:00 +35°C° 0 mm 2 mps 749 mmHg 54%
    08:00 +36°C° 0 mm 3 mps 749 mmHg 50%
    09:00 +37°C° 0 mm 4 mps 749 mmHg 45%
    10:00 +38°C° 0 mm 4 mps 749 mmHg 43%
    11:00 +40°C° 0 mm 5 mps 749 mmHg 41%
    12:00 +41°C° 0 mm 6 mps 748 mmHg 40%
    13:00 +40°C° 0.2 mm 6 mps 748 mmHg 41%
    14:00 +40°C° 0.2 mm 6 mps 747 mmHg 42%
    15:00 +39°C° 0 mm 5 mps 747 mmHg 50%
    16:00 +38°C° 0.2 mm 4 mps 747 mmHg 50%
    17:00 +37°C° 0.2 mm 4 mps 747 mmHg 49%
    18:00 +37°C° 0.2 mm 3 mps 748 mmHg 49%
    19:00 +37°C° 0.1 mm 3 mps 748 mmHg 49%
    20:00 +37°C° 0.1 mm 2 mps 749 mmHg 50%
    21:00 +36°C° 0.1 mm 2 mps 749 mmHg 51%
    22:00 +36°C° 0.1 mm 2 mps 749 mmHg 52%
    23:00 +36°C° 0.1 mm 2 mps 749 mmHg 54%

    Tomorrow, 23 September, Sunday

    Time Temperature Precipitation Wind Pressure Humidity
    00:00 +36°C° 0.1 mm 3 mps 750 mmHg 55%
    01:00 +35°C° 0 mm 2 mps 750 mmHg 58%
    02:00 +35°C° 0 mm 2 mps 750 mmHg 61%
    03:00 +34°C° 0 mm 2 mps 749 mmHg 63%
    04:00 +34°C° 0 mm 2 mps 750 mmHg 64%
    05:00 +34°C° 0 mm 2 mps 750 mmHg 64%
    06:00 +32°C° 0 mm 2 mps 750 mmHg 65%
    07:00 +35°C° 0 mm 2 mps 750 mmHg 57%
    08:00 +36°C° 0 mm 2 mps 750 mmHg 50%
    09:00 +37°C° 0 mm 2 mps 750 mmHg 43%
    10:00 +38°C° 0 mm 3 mps 750 mmHg 39%
    11:00 +40°C° 0 mm 4 mps 749 mmHg 36%
    12:00 +42°C° 0 mm 5 mps 749 mmHg 32%
    13:00 +42°C° 0 mm 5 mps 748 mmHg 33%
    14:00 +41°C° 0 mm 5 mps 748 mmHg 34%
    15:00 +41°C° 0 mm 5 mps 747 mmHg 36%
    16:00 +40°C° 0.1 mm 4 mps 747 mmHg 37%
    17:00 +39°C° 0.1 mm 2 mps 747 mmHg 38%
    18:00 +37°C° 0.1 mm 1 mps 747 mmHg 40%
    19:00 +36°C° 0.1 mm 1 mps 748 mmHg 41%
    20:00 +37°C° 0.1 mm 2 mps 749 mmHg 42%
    21:00 +37°C° 0.1 mm 2 mps 749 mmHg 43%
    22:00 +37°C° 0 mm 2 mps 749 mmHg 44%
    23:00 +36°C° 0 mm 2 mps 749 mmHg 46%

    Day after tomorrow, 24 September, Monday

    Time Temperature Precipitation Wind Pressure Humidity
    00:00 +36°C° 0 mm 2 mps 749 mmHg 47%
    01:00 +35°C° 0 mm 2 mps 749 mmHg 50%
    02:00 +35°C° 0 mm 2 mps 748 mmHg 52%
    03:00 +34°C° 0 mm 2 mps 748 mmHg 54%
    04:00 +34°C° 0 mm 2 mps 748 mmHg 55%
    05:00 +33°C° 0 mm 1 mps 748 mmHg 55%
    06:00 +32°C° 0 mm 1 mps 749 mmHg 56%
    07:00 +34°C° 0 mm 1 mps 749 mmHg 49%
    08:00 +35°C° 0 mm 1 mps 749 mmHg 43%
    09:00 +38°C° 0 mm 2 mps 750 mmHg 36%
    10:00 +39°C° 0 mm 2 mps 749 mmHg 33%
    11:00 +40°C° 0 mm 3 mps 749 mmHg 30%
    12:00 +42°C° 0 mm 4 mps 748 mmHg 27%
    13:00 +42°C° 0 mm 4 mps 748 mmHg 28%
    14:00 +42°C° 0 mm 4 mps 747 mmHg 29%
    15:00 +41°C° 0 mm 4 mps 746 mmHg 30%
    16:00 +41°C° 0.1 mm 4 mps 746 mmHg 31%
    17:00 +39°C° 0.1 mm 3 mps 746 mmHg 33%
    18:00 +39°C° 0.1 mm 3 mps 746 mmHg 34%
    19:00 +38°C° 0 mm 2 mps 747 mmHg 36%
    20:00 +38°C° 0 mm 2 mps 748 mmHg 37%
    21:00 +36°C° 0 mm 1 mps 748 mmHg 39%
    22:00 +36°C° 0 mm 1 mps 748 mmHg 40%
    23:00 +36°C° 0 mm 2 mps 748 mmHg 42%

    25 September, Tuesday

    Time Temperature Precipitation Wind Pressure Humidity
    00:00 +36°C° 0 mm 2 mps 748 mmHg 44%
    01:00 +36°C° 0 mm 2 mps 748 mmHg 46%
    02:00 +35°C° 0 mm 2 mps 748 mmHg 48%
    03:00 +35°C° 0 mm 2 mps 747 mmHg 49%
    04:00 +33°C° 0 mm 1 mps 748 mmHg 49%
    05:00 +33°C° 0 mm 1 mps 748 mmHg 49%
    06:00 +33°C° 0 mm 1 mps 748 mmHg 49%
    07:00 +35°C° 0 mm 2 mps 749 mmHg 44%
    08:00 +37°C° 0 mm 2 mps 749 mmHg 39%
    09:00 +38°C° 0 mm 3 mps 750 mmHg 34%
    10:00 +40°C° 0 mm 4 mps 749 mmHg 33%
    11:00 +41°C° 0 mm 5 mps 748 mmHg 31%
    12:00 +41°C° 0 mm 6 mps 748 mmHg 30%
    13:00 +42°C° 0 mm 6 mps 747 mmHg 30%
    14:00 +42°C° 0 mm 6 mps 746 mmHg 31%
    15:00 +43°C° 0 mm 7 mps 745 mmHg 31%
    16:00 +41°C° 0.1 mm 6 mps 746 mmHg 32%
    17:00 +40°C° 0.1 mm 5 mps 746 mmHg 33%
    18:00 +40°C° 0.1 mm 5 mps 746 mmHg 34%
    19:00 +38°C° 0 mm 4 mps 747 mmHg 36%
    20:00 +38°C° 0 mm 3 mps 747 mmHg 37%
    21:00 +38°C° 0 mm 2 mps 748 mmHg 38%
    22:00 +37°C° 0 mm 2 mps 748 mmHg 39%
    23:00 +37°C° 0 mm 2 mps 748 mmHg 41%

    26 September, Wednesday

    Time Temperature Precipitation Wind Pressure Humidity
    00:00 +37°C° 0 mm 2 mps 748 mmHg 42%
    01:00 +36°C° 0 mm 2 mps 748 mmHg 44%
    02:00 +35°C° 0 mm 3 mps 747 mmHg 46%
    03:00 +35°C° 0 mm 3 mps 747 mmHg 48%
    04:00 +34°C° 0 mm 3 mps 747 mmHg 49%
    05:00 +34°C° 0 mm 3 mps 748 mmHg 50%
    06:00 +34°C° 0 mm 3 mps 748 mmHg 50%
    07:00 +35°C° 0 mm 3 mps 748 mmHg 45%
    08:00 +37°C° 0 mm 4 mps 749 mmHg 40%
    09:00 +38°C° 0 mm 4 mps 749 mmHg 35%
    10:00 +40°C° 0 mm 5 mps 749 mmHg 32%
    11:00 +41°C° 0 mm 6 mps 748 mmHg 30%
    12:00 +42°C° 0 mm 6 mps 748 mmHg 27%
    13:00 +43°C° 0 mm 7 mps 747 mmHg 28%
    14:00 +43°C° 0 mm 7 mps 746 mmHg 29%
    15:00 +43°C° 0 mm 7 mps 745 mmHg 30%
    16:00 +41°C° 0 mm 6 mps 746 mmHg 32%
    17:00 +41°C° 0 mm 5 mps 746 mmHg 33%
    18:00 +40°C° 0 mm 4 mps 746 mmHg 35%
    19:00 +38°C° 0 mm 3 mps 747 mmHg 36%
    20:00 +38°C° 0 mm 2 mps 748 mmHg 38%
    21:00 +38°C° 0 mm 2 mps 748 mmHg 39%
    22:00 +37°C° 0 mm 2 mps 748 mmHg 41%
    23:00 +37°C° 0 mm 2 mps 748 mmHg 43%

    27 September, Thursday

    Time Temperature Precipitation Wind Pressure Humidity
    00:00 +36°C° 0 mm 2 mps 748 mmHg 45%
    01:00 +36°C° 0 mm 2 mps 748 mmHg 48%
    02:00 +35°C° 0 mm 2 mps 747 mmHg 50%
    03:00 +34°C° 0 mm 2 mps 747 mmHg 53%
    04:00 +34°C° 0 mm 2 mps 748 mmHg 53%
    05:00 +34°C° 0 mm 2 mps 748 mmHg 54%
    06:00 +32°C° 0 mm 2 mps 749 mmHg 55%
    07:00 +35°C° 0 mm 3 mps 749 mmHg 48%
    08:00 +37°C° 0 mm 3 mps 749 mmHg 40%
    09:00 +38°C° 0 mm 3 mps 750 mmHg 33%
    10:00 +40°C° 0 mm 4 mps 749 mmHg 31%
    11:00 +41°C° 0 mm 5 mps 748 mmHg 28%
    12:00 +44°C° 0 mm 6 mps 748 mmHg 26%
    13:00 +42°C° 0 mm 6 mps 747 mmHg 28%
    14:00 +42°C° 0 mm 6 mps 746 mmHg 30%
    15:00 +42°C° 0 mm 6 mps 746 mmHg 31%
    16:00 +41°C° 0 mm 5 mps 746 mmHg 33%
    17:00 +40°C° 0 mm 4 mps 746 mmHg 36%
    18:00 +38°C° 0 mm 3 mps 747 mmHg 38%
    19:00 +38°C° 0 mm 2 mps 747 mmHg 40%
    20:00 +38°C° 0 mm 2 mps 748 mmHg 41%
    21:00 +36°C° 0 mm 1 mps 748 mmHg 43%
    22:00 +36°C° 0 mm 1 mps 748 mmHg 45%
    23:00 +35°C° 0 mm 1 mps 748 mmHg 46%
    Show more